| time (UTC) | temp F | wind direction | speed MPH | gust MPH | rain 1hr in | rain 24hr in | rain mn in | humidity % | barometer mb |
| 20260906022814 | 61 | 39 | 0.0 | 0.0 | 0.00 | 0.04 | 0.00 | 94 | 969.9 |
| 20260906022313 | 61 | 39 | 0.0 | 0.0 | 0.00 | 0.04 | 0.00 | 93 | 969.8 |
| 20260906022306 | 61 | 39 | 0.0 | 0.0 | 0.00 | 0.04 | 0.00 | 93 | 969.8 |
| 20260906021519 | 62 | 39 | 0.0 | 0.0 | 0.00 | 0.04 | 0.00 | 93 | 969.7 |
| 20260906021407 | 62 | 39 | 0.0 | 0.0 | 0.00 | 0.04 | 0.00 | 93 | 969.7 |
| 20260906020315 | 62 | 39 | 0.0 | 0.0 | 0.00 | 0.04 | 0.00 | 92 | 969.6 |
| 20260906015813 | 62 | 39 | 0.0 | 0.0 | 0.00 | 0.04 | 0.00 | 92 | 969.7 |
| 20260906015315 | 62 | 39 | 0.0 | 0.0 | 0.00 | 0.04 | 0.00 | 92 | 969.7 |
| 20260906014816 | 62 | 39 | 0.0 | 0.0 | 0.00 | 0.04 | 0.00 | 91 | 969.5 |
| 20260906014315 | 62 | 39 | 0.0 | 0.0 | 0.00 | 0.04 | 0.00 | 91 | 969.4 |
| 20260906013813 | 63 | 39 | 0.0 | 0.0 | 0.00 | 0.04 | 0.00 | 90 | 969.5 |
| 20260906013314 | 63 | 39 | 0.0 | 0.0 | 0.00 | 0.04 | 0.00 | 90 | 969.5 |
| 20260906012813 | 63 | 39 | 0.0 | 0.0 | 0.00 | 0.04 | 0.00 | 90 | 969.4 |
| 20260906012535 | 63 | 39 | 0.0 | 0.0 | 0.00 | 0.04 | 0.00 | 90 | 969.4 |
| 20260906012037 | 63 | 39 | 0.0 | 0.0 | 0.00 | 0.04 | 0.00 | 89 | 969.3 |
| 20260906011313 | 64 | 39 | 0.0 | 0.0 | 0.00 | 0.04 | 0.00 | 88 | 969.2 |
| 20260906010815 | 64 | 39 | 0.0 | 0.0 | 0.00 | 0.04 | 0.00 | 87 | 969.2 |
| 20260906010313 | 64 | 39 | 0.0 | 0.0 | 0.00 | 0.04 | 0.00 | 86 | 969.2 |
| 20260906005815 | 65 | 39 | 0.0 | 0.0 | 0.00 | 0.04 | 0.00 | 85 | 969.2 |
| 20260906005311 | 65 | 39 | 0.0 | 0.0 | 0.00 | 0.04 | 0.00 | 84 | 969.0 |
| 20260906004812 | 65 | 39 | 0.0 | 0.0 | 0.00 | 0.04 | 0.00 | 83 | 969.0 |
| 20260906004311 | 66 | 39 | 0.0 | 0.0 | 0.00 | 0.04 | 0.00 | 82 | 969.1 |
| 20260906004034 | 66 | 39 | 0.0 | 0.0 | 0.00 | 0.04 | 0.00 | 81 | 969.0 |
| 20260906003531 | 67 | 39 | 0.0 | 0.0 | 0.00 | 0.04 | 0.00 | 81 | 968.9 |
| 20260906002807 | 67 | 39 | 0.0 | 0.0 | 0.00 | 0.04 | 0.00 | 79 | 968.9 |
| 20260906002523 | 67 | 39 | 0.0 | 0.0 | 0.00 | 0.04 | 0.00 | 78 | 968.8 |
| 20260906001806 | 68 | 39 | 0.0 | 0.0 | 0.00 | 0.04 | 0.00 | 77 | 968.7 |
| 20260906001528 | 68 | 39 | 0.0 | 0.0 | 0.00 | 0.04 | 0.00 | 75 | 968.7 |
| 20260906001011 | 69 | 39 | 0.0 | 0.0 | 0.00 | 0.04 | 0.00 | 73 | 968.6 |
| 20260906000856 | 69 | 39 | 0.0 | 0.0 | 0.00 | 0.04 | 0.00 | 74 | 968.5 |
| 20260905235803 | 70 | 39 | 0.0 | 0.0 | 0.00 | 0.04 | 0.00 | 72 | 968.6 |
| 20260905235257 | 70 | 39 | 0.0 | 0.0 | 0.00 | 0.04 | 0.00 | 72 | 968.5 |
| 20260905234752 | 71 | 39 | 0.0 | 0.0 | 0.00 | 0.04 | 0.00 | 70 | 968.5 |
| 20260905234245 | 71 | 39 | 0.0 | 0.0 | 0.00 | 0.04 | 0.00 | 69 | 968.5 |
| 20260905233742 | 72 | 39 | 0.0 | 0.0 | 0.00 | 0.04 | 0.00 | 68 | 968.5 |
| 20260905233239 | 72 | 39 | 0.0 | 0.0 | 0.00 | 0.04 | 0.00 | 67 | 968.5 |
| 20260905232737 | 73 | 39 | 0.0 | 0.0 | 0.00 | 0.04 | 0.00 | 67 | 968.4 |
| 20260905232457 | 73 | 39 | 0.0 | 2.0 | 0.00 | 0.04 | 0.00 | 66 | 968.4 |
| 20260905231738 | 74 | 39 | 0.0 | 2.0 | 0.00 | 0.04 | 0.00 | 64 | 968.4 |
| 20260905231236 | 74 | 39 | 1.0 | 2.0 | 0.00 | 0.04 | 0.00 | 64 | 968.4 |
| 20260905230734 | 74 | 27 | 1.0 | 2.0 | 0.00 | 0.04 | 0.00 | 64 | 968.3 |
| 20260905230231 | 75 | 36 | 1.0 | 3.0 | 0.00 | 0.04 | 0.00 | 62 | 968.4 |
| 20260905225729 | 75 | 39 | 1.0 | 3.0 | 0.00 | 0.04 | 0.00 | 62 | 968.4 |
| 20260905225229 | 76 | 34 | 1.0 | 3.0 | 0.00 | 0.04 | 0.00 | 60 | 968.3 |
| 20260905224731 | 77 | 42 | 1.0 | 4.0 | 0.00 | 0.04 | 0.00 | 60 | 968.3 |
| 20260905224228 | 78 | 40 | 1.0 | 4.0 | 0.00 | 0.04 | 0.00 | 58 | 968.3 |
| 20260905223957 | 78 | 38 | 1.0 | 2.0 | 0.00 | 0.04 | 0.00 | 58 | 968.2 |
| 20260905223227 | 78 | 350 | 1.0 | 2.0 | 0.00 | 0.04 | 0.00 | 59 | 968.2 |
| 20260905222727 | 78 | 40 | 1.0 | 5.0 | 0.00 | 0.04 | 0.00 | 58 | 968.2 |
| 20260905222227 | 78 | 28 | 1.0 | 5.0 | 0.00 | 0.04 | 0.00 | 57 | 968.1 |
| 20260905221944 | 79 | 32 | 1.0 | 3.0 | 0.00 | 0.04 | 0.00 | 58 | 968.1 |
| 20260905221226 | 78 | 42 | 1.0 | 5.0 | 0.00 | 0.04 | 0.00 | 59 | 968.1 |
| 20260905220719 | 78 | 27 | 1.0 | 5.0 | 0.00 | 0.04 | 0.00 | 59 | 968.0 |
| 20260905220212 | 78 | 15 | 2.0 | 4.0 | 0.00 | 0.04 | 0.00 | 59 | 968.0 |
| 20260905215706 | 78 | 42 | 1.0 | 3.0 | 0.00 | 0.04 | 0.00 | 60 | 967.8 |
| 20260905215200 | 78 | 39 | 1.0 | 4.0 | 0.00 | 0.04 | 0.00 | 60 | 967.8 |
| 20260905214653 | 78 | 148 | 2.0 | 4.0 | 0.00 | 0.04 | 0.00 | 60 | 967.8 |
| 20260905214148 | 78 | 28 | 2.0 | 7.0 | 0.00 | 0.04 | 0.00 | 60 | 967.8 |
| 20260905213642 | 78 | 36 | 2.0 | 7.0 | 0.00 | 0.04 | 0.00 | 61 | 967.8 |
| 20260905213136 | 78 | 346 | 2.0 | 6.0 | 0.00 | 0.04 | 0.00 | 59 | 967.8 |
| 20260905212630 | 78 | 32 | 1.0 | 4.0 | 0.00 | 0.04 | 0.00 | 60 | 967.9 |
| 20260905212124 | 78 | 26 | 1.0 | 5.0 | 0.00 | 0.04 | 0.00 | 59 | 967.9 |
| 20260905212108 | 78 | 15 | 1.0 | 5.0 | 0.00 | 0.04 | 0.00 | 58 | 967.9 |
| 20260905211112 | 78 | 53 | 1.0 | 4.0 | 0.00 | 0.04 | 0.00 | 59 | 967.8 |
| 20260905210832 | 78 | 10 | 1.0 | 5.0 | 0.00 | 0.04 | 0.00 | 60 | 967.7 |
| 20260905210100 | 78 | 349 | 1.0 | 5.0 | 0.00 | 0.04 | 0.00 | 58 | 967.8 |
| 20260905205822 | 78 | 17 | 1.0 | 3.0 | 0.00 | 0.04 | 0.00 | 60 | 967.8 |
| 20260905205313 | 78 | 67 | 1.0 | 3.0 | 0.00 | 0.04 | 0.00 | 57 | 967.9 |
| 20260905204542 | 78 | 5 | 1.0 | 4.0 | 0.00 | 0.04 | 0.00 | 60 | 968.0 |
| 20260905204035 | 78 | 36 | 1.0 | 4.0 | 0.00 | 0.04 | 0.00 | 61 | 967.9 |
| 20260905203530 | 78 | 350 | 1.0 | 4.0 | 0.00 | 0.04 | 0.00 | 59 | 967.9 |
| 20260905203024 | 78 | 30 | 2.0 | 5.0 | 0.00 | 0.04 | 0.00 | 59 | 967.9 |
| 20260905202518 | 78 | 32 | 2.0 | 5.0 | 0.00 | 0.04 | 0.00 | 60 | 967.9 |
| 20260905202239 | 78 | 53 | 2.0 | 7.0 | 0.00 | 0.04 | 0.00 | 61 | 967.8 |
| 20260905201506 | 78 | 22 | 1.0 | 7.0 | 0.00 | 0.04 | 0.00 | 60 | 967.8 |
| 20260905200959 | 78 | 296 | 2.0 | 7.0 | 0.00 | 0.04 | 0.00 | 60 | 967.8 |
| 20260905200720 | 78 | 28 | 2.0 | 7.0 | 0.00 | 0.04 | 0.00 | 60 | 967.8 |
| 20260905195948 | 77 | 59 | 1.0 | 5.0 | 0.00 | 0.04 | 0.00 | 61 | 967.8 |
| 20260905195442 | 77 | 15 | 1.0 | 4.0 | 0.00 | 0.04 | 0.00 | 65 | 967.9 |
| 20260905194935 | 77 | 23 | 1.0 | 3.0 | 0.00 | 0.04 | 0.00 | 65 | 967.9 |
| 20260905194653 | 77 | 19 | 1.0 | 4.0 | 0.00 | 0.04 | 0.00 | 63 | 967.9 |
| 20260905193924 | 78 | 35 | 2.0 | 4.0 | 0.00 | 0.04 | 0.00 | 61 | 967.9 |
| 20260905193418 | 77 | 35 | 1.0 | 4.0 | 0.00 | 0.04 | 0.00 | 65 | 968.0 |
| 20260905193139 | 77 | 17 | 1.0 | 3.0 | 0.00 | 0.04 | 0.00 | 65 | 968.0 |
| 20260905192406 | 77 | 342 | 1.0 | 3.0 | 0.00 | 0.04 | 0.00 | 62 | 968.1 |
| 20260905191900 | 78 | 23 | 2.0 | 4.0 | 0.00 | 0.04 | 0.00 | 61 | 968.1 |
| 20260905191354 | 79 | 40 | 2.0 | 4.0 | 0.00 | 0.04 | 0.00 | 61 | 968.1 |
| 20260905190848 | 79 | 348 | 1.0 | 4.0 | 0.00 | 0.04 | 0.00 | 59 | 968.1 |
| 20260905190342 | 78 | 14 | 0.0 | 3.0 | 0.00 | 0.04 | 0.00 | 63 | 968.2 |
| 20260905185836 | 78 | 15 | 0.0 | 1.0 | 0.00 | 0.04 | 0.00 | 62 | 968.1 |
| 20260905185329 | 77 | 26 | 1.0 | 4.0 | 0.00 | 0.04 | 0.00 | 66 | 968.2 |
| 20260905185049 | 78 | 22 | 2.0 | 6.0 | 0.00 | 0.04 | 0.00 | 65 | 968.3 |
| 20260905184317 | 79 | 19 | 2.0 | 6.0 | 0.00 | 0.04 | 0.00 | 62 | 968.3 |
| 20260905183811 | 80 | 0 | 1.0 | 5.0 | 0.00 | 0.04 | 0.00 | 62 | 968.3 |
| 20260905183306 | 79 | 27 | 2.0 | 7.0 | 0.00 | 0.04 | 0.00 | 64 | 968.3 |
| 20260905182800 | 78 | 329 | 3.0 | 7.0 | 0.00 | 0.04 | 0.00 | 65 | 968.3 |
| 20260905182522 | 78 | 26 | 2.0 | 7.0 | 0.00 | 0.04 | 0.00 | 64 | 968.3 |
| 20260905181748 | 79 | 20 | 1.0 | 8.0 | 0.00 | 0.04 | 0.00 | 63 | 968.4 |
| 20260905181242 | 79 | 41 | 2.0 | 8.0 | 0.00 | 0.04 | 0.00 | 63 | 968.5 |
| 20260905180741 | 79 | 12 | 2.0 | 7.0 | 0.00 | 0.04 | 0.00 | 65 | 968.5 |
| 20260905180242 | 79 | 341 | 1.0 | 5.0 | 0.00 | 0.04 | 0.00 | 67 | 968.5 |
| 20260905175740 | 78 | 15 | 1.0 | 6.0 | 0.00 | 0.04 | 0.00 | 64 | 968.5 |
| 20260905175241 | 78 | 28 | 2.0 | 6.0 | 0.00 | 0.04 | 0.00 | 69 | 968.5 |
| 20260905175222 | 77 | 273 | 1.0 | 6.0 | 0.00 | 0.04 | 0.00 | 67 | 968.6 |
| 20260905174240 | 78 | 21 | 1.0 | 6.0 | 0.00 | 0.04 | 0.00 | 65 | 968.6 |
| 20260905173506 | 78 | 56 | 1.0 | 9.0 | 0.00 | 0.04 | 0.00 | 66 | 968.7 |
| 20260905172738 | 77 | 22 | 1.0 | 6.0 | 0.00 | 0.04 | 0.00 | 70 | 968.8 |
| 20260905172238 | 78 | 340 | 0.0 | 4.0 | 0.00 | 0.04 | 0.00 | 67 | 968.8 |
| 20260905171737 | 78 | 30 | 1.0 | 7.0 | 0.00 | 0.04 | 0.00 | 67 | 968.9 |
| 20260905171238 | 77 | 19 | 1.0 | 7.0 | 0.00 | 0.04 | 0.00 | 72 | 968.9 |
| 20260905170738 | 77 | 33 | 1.0 | 5.0 | 0.00 | 0.04 | 0.00 | 68 | 969.0 |
| 20260905170237 | 77 | 57 | 1.0 | 6.0 | 0.00 | 0.04 | 0.00 | 68 | 969.1 |
| 20260905165738 | 77 | 34 | 1.0 | 6.0 | 0.00 | 0.04 | 0.00 | 73 | 969.0 |
| 20260905165238 | 77 | 289 | 0.0 | 4.0 | 0.00 | 0.04 | 0.00 | 72 | 969.1 |
| 20260905164737 | 76 | 294 | 0.0 | 3.0 | 0.00 | 0.04 | 0.00 | 73 | 969.2 |
| 20260905164238 | 76 | 335 | 1.0 | 4.0 | 0.00 | 0.04 | 0.00 | 72 | 969.2 |
| 20260905163736 | 75 | 267 | 1.0 | 4.0 | 0.00 | 0.04 | 0.00 | 74 | 969.3 |
| 20260905163234 | 75 | 16 | 1.0 | 7.0 | 0.00 | 0.04 | 0.00 | 73 | 969.5 |
| 20260905162733 | 75 | 300 | 1.0 | 7.0 | 0.00 | 0.04 | 0.00 | 71 | 969.5 |
| 20260905162233 | 75 | 33 | 1.0 | 4.0 | 0.00 | 0.04 | 0.00 | 73 | 969.5 |
| 20260905161733 | 75 | 9 | 0.0 | 4.0 | 0.00 | 0.04 | 0.00 | 78 | 969.6 |
| 20260905161234 | 74 | 16 | 0.0 | 3.0 | 0.00 | 0.04 | 0.00 | 76 | 969.7 |
| 20260905160957 | 74 | 335 | 1.0 | 3.0 | 0.00 | 0.04 | 0.00 | 77 | 969.6 |
| 20260905160234 | 74 | 163 | 0.0 | 2.0 | 0.00 | 0.04 | 0.00 | 76 | 969.6 |
| 20260905155728 | 74 | 180 | 0.0 | 2.0 | 0.00 | 0.04 | 0.00 | 81 | 969.7 |
| 20260905155228 | 73 | 11 | 1.0 | 2.0 | 0.00 | 0.04 | 0.00 | 77 | 969.6 |
| 20260905154955 | 73 | 15 | 1.0 | 3.0 | 0.00 | 0.04 | 0.00 | 79 | 969.7 |
| 20260905154230 | 73 | 5 | 0.0 | 3.0 | 0.00 | 0.04 | 0.00 | 78 | 969.7 |
| 20260905153729 | 73 | 19 | 0.0 | 3.0 | 0.00 | 0.04 | 0.00 | 82 | 969.7 |
| 20260905153229 | 73 | 13 | 0.0 | 4.0 | 0.00 | 0.04 | 0.00 | 79 | 969.8 |
| 20260905152728 | 73 | 38 | 0.0 | 4.0 | 0.00 | 0.04 | 0.00 | 80 | 969.8 |
| 20260905152229 | 73 | 174 | 0.0 | 1.0 | 0.00 | 0.04 | 0.00 | 81 | 969.8 |
| 20260905151956 | 73 | 13 | 0.0 | 3.0 | 0.00 | 0.04 | 0.00 | 82 | 969.8 |
| 20260905151226 | 73 | 12 | 0.0 | 3.0 | 0.00 | 0.04 | 0.00 | 79 | 969.9 |
| 20260905150724 | 72 | 13 | 0.0 | 3.0 | 0.00 | 0.04 | 0.00 | 82 | 969.8 |
| 20260905150225 | 73 | 58 | 0.0 | 3.0 | 0.00 | 0.04 | 0.00 | 81 | 969.8 |
| 20260905145726 | 73 | 28 | 0.0 | 2.0 | 0.00 | 0.04 | 0.00 | 81 | 969.8 |
| 20260905145455 | 73 | 329 | 0.0 | 0.0 | 0.00 | 0.04 | 0.00 | 83 | 969.8 |
| 20260905144726 | 72 | 323 | 0.0 | 2.0 | 0.00 | 0.04 | 0.00 | 81 | 969.6 |
| 20260905144447 | 72 | 27 | 1.0 | 3.0 | 0.00 | 0.04 | 0.00 | 82 | 969.7 |
| 20260905143724 | 72 | 13 | 0.0 | 3.0 | 0.00 | 0.04 | 0.00 | 83 | 969.6 |
| 20260905143225 | 71 | 308 | 0.0 | 2.0 | 0.00 | 0.04 | 0.00 | 83 | 969.5 |
| 20260905142724 | 71 | 277 | 0.0 | 2.0 | 0.00 | 0.04 | 0.00 | 83 | 969.5 |
| 20260905142227 | 71 | 25 | 1.0 | 3.0 | 0.00 | 0.04 | 0.00 | 83 | 969.5 |
| 20260905141951 | 71 | 35 | 1.0 | 3.0 | 0.00 | 0.04 | 0.00 | 84 | 969.5 |
| 20260905141228 | 71 | 24 | 0.0 | 2.0 | 0.00 | 0.04 | 0.00 | 84 | 969.5 |
| 20260905140727 | 71 | 24 | 0.0 | 1.0 | 0.00 | 0.04 | 0.00 | 84 | 969.4 |
| 20260905140711 | 71 | 24 | 0.0 | 0.0 | 0.00 | 0.04 | 0.00 | 85 | 969.3 |
| 20260905135943 | 71 | 26 | 0.0 | 2.0 | 0.00 | 0.04 | 0.00 | 85 | 969.3 |
| 20260905135226 | 70 | 30 | 1.0 | 3.0 | 0.00 | 0.04 | 0.00 | 87 | 969.3 |
| 20260905134722 | 70 | 23 | 1.0 | 3.0 | 0.00 | 0.04 | 0.00 | 86 | 969.3 |
| 20260905134223 | 70 | 30 | 0.0 | 3.0 | 0.00 | 0.04 | 0.00 | 87 | 969.3 |
| 20260905133715 | 70 | 165 | 0.0 | 4.0 | 0.00 | 0.04 | 0.00 | 87 | 969.3 |
| 20260905133208 | 70 | 20 | 1.0 | 4.0 | 0.00 | 0.04 | 0.00 | 88 | 969.3 |
| 20260905132704 | 70 | 23 | 0.0 | 2.0 | 0.00 | 0.04 | 0.00 | 87 | 969.2 |
| 20260905132204 | 70 | 37 | 0.0 | 1.0 | 0.00 | 0.04 | 0.00 | 88 | 969.3 |
| 20260905131704 | 70 | 37 | 0.0 | 1.0 | 0.00 | 0.04 | 0.00 | 90 | 969.4 |
| 20260905131426 | 69 | 37 | 0.0 | 1.0 | 0.00 | 0.04 | 0.00 | 90 | 969.3 |
| 20260905130702 | 69 | 37 | 0.0 | 1.0 | 0.00 | 0.04 | 0.00 | 90 | 969.3 |
| 20260905130159 | 69 | 41 | 0.0 | 3.0 | 0.00 | 0.04 | 0.00 | 90 | 969.2 |
| 20260905125657 | 69 | 9 | 0.0 | 3.0 | 0.00 | 0.04 | 0.00 | 89 | 969.2 |
| 20260905125200 | 69 | 39 | 0.0 | 0.0 | 0.00 | 0.04 | 0.00 | 90 | 969.3 |
| 20260905124658 | 69 | 38 | 0.0 | 0.0 | 0.00 | 0.04 | 0.00 | 90 | 969.3 |
| 20260905124156 | 69 | 117 | 0.0 | 0.0 | 0.00 | 0.04 | 0.00 | 90 | 969.3 |
| 20260905123919 | 69 | 117 | 0.0 | 0.0 | 0.00 | 0.04 | 0.00 | 91 | 969.2 |
| 20260905123413 | 69 | 117 | 0.0 | 0.0 | 0.00 | 0.04 | 0.00 | 91 | 969.3 |
| 20260905122648 | 69 | 117 | 0.0 | 0.0 | 0.00 | 0.04 | 0.00 | 92 | 969.2 |
| 20260905122146 | 69 | 32 | 0.0 | 0.0 | 0.00 | 0.04 | 0.00 | 93 | 969.2 |
| 20260905121908 | 68 | 32 | 0.0 | 0.0 | 0.00 | 0.04 | 0.00 | 92 | 969.1 |
| 20260905121147 | 68 | 32 | 0.0 | 0.0 | 0.00 | 0.04 | 0.00 | 93 | 969.0 |
| 20260905120644 | 68 | 32 | 0.0 | 0.0 | 0.00 | 0.04 | 0.00 | 93 | 969.0 |
| 20260905120143 | 68 | 32 | 0.0 | 0.0 | 0.00 | 0.04 | 0.00 | 93 | 969.0 |
| 20260905115641 | 68 | 32 | 0.0 | 0.0 | 0.00 | 0.04 | 0.00 | 94 | 969.2 |
| 20260905115140 | 67 | 32 | 0.0 | 0.0 | 0.00 | 0.04 | 0.00 | 94 | 969.2 |
| 20260905114640 | 67 | 32 | 0.0 | 0.0 | 0.00 | 0.04 | 0.00 | 95 | 969.1 |
| 20260905114352 | 67 | 32 | 0.0 | 0.0 | 0.00 | 0.04 | 0.00 | 95 | 969.2 |
| 20260905113627 | 67 | 32 | 0.0 | 0.0 | 0.00 | 0.04 | 0.00 | 94 | 969.3 |
| 20260905113121 | 67 | 32 | 0.0 | 0.0 | 0.00 | 0.04 | 0.00 | 95 | 969.2 |
| 20260905112618 | 67 | 32 | 0.0 | 0.0 | 0.00 | 0.04 | 0.00 | 96 | 969.2 |
| 20260905112110 | 67 | 32 | 0.0 | 0.0 | 0.00 | 0.04 | 0.00 | 96 | 969.1 |
| 20260905111604 | 66 | 32 | 0.0 | 0.0 | 0.00 | 0.04 | 0.00 | 96 | 968.9 |
| 20260905111058 | 66 | 32 | 0.0 | 0.0 | 0.00 | 0.04 | 0.00 | 96 | 969.0 |
| 20260905110552 | 66 | 32 | 0.0 | 0.0 | 0.00 | 0.04 | 0.00 | 96 | 968.7 |
| 20260905110046 | 66 | 32 | 0.0 | 0.0 | 0.00 | 0.04 | 0.00 | 95 | 968.6 |
| 20260905105540 | 66 | 32 | 0.0 | 0.0 | 0.00 | 0.04 | 0.00 | 95 | 968.4 |
| 20260905105034 | 66 | 32 | 0.0 | 0.0 | 0.00 | 0.04 | 0.00 | 95 | 968.4 |
| 20260905104528 | 66 | 32 | 0.0 | 0.0 | 0.00 | 0.04 | 0.00 | 95 | 968.5 |
| 20260905104022 | 66 | 32 | 0.0 | 0.0 | 0.00 | 0.04 | 0.00 | 95 | 968.5 |
| 20260905103516 | 66 | 32 | 0.0 | 0.0 | 0.00 | 0.04 | 0.00 | 95 | 968.4 |
| 20260905103010 | 66 | 32 | 0.0 | 0.0 | 0.00 | 0.04 | 0.00 | 95 | 968.5 |
| 20260905102504 | 66 | 32 | 0.0 | 0.0 | 0.00 | 0.04 | 0.00 | 94 | 968.5 |
| 20260905102225 | 66 | 32 | 0.0 | 0.0 | 0.00 | 0.04 | 0.00 | 94 | 968.6 |
| 20260905101657 | 66 | 32 | 0.0 | 0.0 | 0.00 | 0.04 | 0.00 | 94 | 968.4 |
| 20260905101546 | 66 | 32 | 0.0 | 0.0 | 0.00 | 0.04 | 0.00 | 94 | 968.5 |
| 20260905100440 | 66 | 32 | 0.0 | 0.0 | 0.00 | 0.04 | 0.00 | 94 | 968.3 |
| 20260905095934 | 66 | 32 | 0.0 | 0.0 | 0.00 | 0.04 | 0.00 | 95 | 968.3 |
| 20260905095428 | 66 | 32 | 0.0 | 0.0 | 0.00 | 0.04 | 0.00 | 94 | 968.3 |
| 20260905094922 | 66 | 32 | 0.0 | 0.0 | 0.00 | 0.04 | 0.00 | 94 | 968.2 |
| 20260905094416 | 67 | 32 | 0.0 | 0.0 | 0.00 | 0.04 | 0.00 | 95 | 968.2 |
| 20260905093909 | 67 | 32 | 0.0 | 0.0 | 0.00 | 0.04 | 0.00 | 95 | 968.2 |
| 20260905093403 | 67 | 32 | 0.0 | 0.0 | 0.00 | 0.04 | 0.00 | 95 | 968.2 |
| 20260905092858 | 67 | 32 | 0.0 | 0.0 | 0.00 | 0.04 | 0.00 | 94 | 968.3 |
| 20260905092352 | 67 | 33 | 0.0 | 1.0 | 0.00 | 0.04 | 0.00 | 94 | 968.2 |
| 20260905092104 | 67 | 32 | 0.0 | 1.0 | 0.00 | 0.04 | 0.00 | 94 | 968.2 |
| 20260905091340 | 67 | 22 | 0.0 | 1.0 | 0.00 | 0.04 | 0.00 | 94 | 968.2 |
| 20260905090833 | 67 | 26 | 0.0 | 1.0 | 0.00 | 0.04 | 0.00 | 94 | 968.2 |
| 20260905090328 | 67 | 30 | 0.0 | 1.0 | 0.00 | 0.04 | 0.00 | 94 | 968.2 |
| 20260905085822 | 68 | 26 | 0.0 | 1.0 | 0.00 | 0.04 | 0.00 | 93 | 968.2 |
| 20260905085316 | 68 | 337 | 0.0 | 1.0 | 0.00 | 0.04 | 0.00 | 93 | 968.1 |
| 20260905084810 | 68 | 17 | 0.0 | 0.0 | 0.00 | 0.04 | 0.00 | 92 | 968.0 |
| 20260905084303 | 69 | 66 | 0.0 | 3.0 | 0.00 | 0.04 | 0.00 | 93 | 968.1 |
| 20260905083758 | 69 | 26 | 0.0 | 3.0 | 0.00 | 0.04 | 0.00 | 93 | 968.1 |
| 20260905083252 | 70 | 32 | 0.0 | 2.0 | 0.00 | 0.04 | 0.00 | 95 | 968.1 |
| 20260905082746 | 70 | 28 | 0.0 | 2.0 | 0.00 | 0.04 | 0.00 | 96 | 968.1 |
| 20260905082240 | 70 | 29 | 0.0 | 1.0 | 0.00 | 0.04 | 0.00 | 97 | 968.0 |
| 20260905081734 | 70 | 29 | 0.0 | 1.0 | 0.00 | 0.04 | 0.00 | 97 | 968.0 |
| 20260905081445 | 70 | 30 | 0.0 | 0.0 | 0.00 | 0.04 | 0.00 | 97 | 968.0 |
| 20260905080722 | 70 | 30 | 0.0 | 0.0 | 0.00 | 0.04 | 0.00 | 97 | 968.0 |
| 20260905080216 | 70 | 30 | 0.0 | 0.0 | 0.00 | 0.04 | 0.00 | 97 | 968.1 |
| 20260905075710 | 70 | 30 | 0.0 | 0.0 | 0.00 | 0.04 | 0.00 | 97 | 968.1 |
| 20260905075208 | 70 | 30 | 0.0 | 0.0 | 0.00 | 0.04 | 0.00 | 97 | 968.0 |
| 20260905075149 | 70 | 30 | 0.0 | 0.0 | 0.00 | 0.04 | 0.00 | 98 | 968.1 |
| 20260905074207 | 70 | 30 | 0.0 | 0.0 | 0.00 | 0.04 | 0.00 | 98 | 968.1 |
| 20260905073917 | 70 | 30 | 0.0 | 0.0 | 0.00 | 0.04 | 0.00 | 97 | 968.2 |
| 20260905073759 | 70 | 30 | 0.0 | 0.0 | 0.00 | 0.04 | 0.00 | 97 | 968.2 |
| 20260905072704 | 70 | 30 | 0.0 | 0.0 | 0.00 | 0.04 | 0.00 | 97 | 968.3 |
| 20260905072203 | 70 | 30 | 0.0 | 0.0 | 0.00 | 0.04 | 0.00 | 97 | 968.3 |
| 20260905071705 | 70 | 30 | 0.0 | 0.0 | 0.00 | 0.04 | 0.00 | 97 | 968.4 |
| 20260905071204 | 70 | 30 | 0.0 | 0.0 | 0.00 | 0.04 | 0.00 | 97 | 968.4 |
| 20260905070704 | 70 | 30 | 0.0 | 0.0 | 0.00 | 0.04 | 0.00 | 97 | 968.5 |
| 20260905070203 | 70 | 30 | 0.0 | 0.0 | 0.00 | 0.04 | 0.00 | 97 | 968.5 |
| 20260905065703 | 70 | 30 | 0.0 | 0.0 | 0.00 | 0.04 | 0.00 | 97 | 968.5 |
| 20260905065206 | 70 | 30 | 0.0 | 2.0 | 0.00 | 0.04 | 0.00 | 98 | 968.5 |
| 20260905064704 | 70 | 30 | 0.0 | 2.0 | 0.00 | 0.04 | 0.00 | 98 | 968.6 |
| 20260905064205 | 70 | 34 | 0.0 | 0.0 | 0.00 | 0.04 | 0.00 | 98 | 968.6 |
| 20260905063705 | 70 | 34 | 0.0 | 0.0 | 0.00 | 0.04 | 0.00 | 98 | 968.7 |
| 20260905063159 | 70 | 34 | 0.0 | 0.0 | 0.00 | 0.04 | 0.00 | 98 | 968.7 |
| 20260905062657 | 70 | 34 | 0.0 | 0.0 | 0.00 | 0.04 | 0.00 | 98 | 968.7 |
| 20260905062153 | 70 | 34 | 0.0 | 0.0 | 0.00 | 0.04 | 0.00 | 98 | 968.7 |
| 20260905061655 | 70 | 34 | 0.0 | 0.0 | 0.00 | 0.04 | 0.00 | 98 | 968.8 |
| 20260905061154 | 70 | 34 | 0.0 | 0.0 | 0.00 | 0.04 | 0.00 | 98 | 968.9 |
| 20260905060653 | 70 | 34 | 0.0 | 0.0 | 0.00 | 0.04 | 0.00 | 98 | 969.0 |
| 20260905060154 | 71 | 34 | 0.0 | 0.0 | 0.00 | 0.04 | 0.00 | 98 | 968.9 |
| 20260905055650 | 71 | 34 | 0.0 | 0.0 | 0.00 | 0.04 | 0.00 | 98 | 968.9 |
| 20260905055154 | 71 | 34 | 0.0 | 0.0 | 0.00 | 0.04 | 0.00 | 97 | 969.0 |
| 20260905054651 | 71 | 34 | 0.0 | 0.0 | 0.00 | 0.04 | 0.00 | 97 | 969.0 |
| 20260905054411 | 71 | 34 | 0.0 | 0.0 | 0.00 | 0.04 | 0.00 | 97 | 969.0 |
| 20260905053649 | 71 | 34 | 0.0 | 0.0 | 0.00 | 0.04 | 0.00 | 97 | 969.1 |
| 20260905053149 | 71 | 34 | 0.0 | 1.0 | 0.00 | 0.04 | 0.00 | 97 | 969.1 |
| 20260905052646 | 71 | 19 | 0.0 | 1.0 | 0.00 | 0.04 | 0.00 | 97 | 969.1 |
| 20260905052409 | 71 | 45 | 0.0 | 1.0 | 0.00 | 0.04 | 0.00 | 98 | 969.2 |
| 20260905051906 | 71 | 45 | 0.0 | 1.0 | 0.00 | 0.04 | 0.00 | 98 | 969.2 |
| 20260905051143 | 71 | 45 | 0.0 | 0.0 | 0.00 | 0.04 | 0.00 | 98 | 969.2 |
| 20260905050644 | 71 | 45 | 0.0 | 0.0 | 0.00 | 0.04 | 0.00 | 98 | 969.2 |
| 20260905050143 | 71 | 45 | 0.0 | 0.0 | 0.00 | 0.04 | 0.00 | 98 | 969.2 |
| 20260905045645 | 71 | 45 | 0.0 | 0.0 | 0.00 | 0.04 | 0.00 | 99 | 969.4 |
| 20260905045403 | 71 | 45 | 0.0 | 0.0 | 0.00 | 0.04 | 0.00 | 99 | 969.4 |
| 20260905044645 | 71 | 45 | 0.0 | 0.0 | 0.00 | 0.04 | 0.00 | 99 | 969.4 |
| 20260905044143 | 71 | 45 | 0.0 | 0.0 | 0.01 | 0.04 | 0.00 | 98 | 969.4 |
| 20260905043645 | 71 | 45 | 0.0 | 0.0 | 0.01 | 0.04 | 0.00 | 98 | 969.4 |
| 20260905043140 | 71 | 45 | 0.0 | 0.0 | 0.02 | 0.04 | 0.00 | 98 | 969.5 |
| 20260905042639 | 71 | 45 | 0.0 | 0.0 | 0.03 | 0.04 | 0.00 | 98 | 969.4 |
| 20260905042400 | 71 | 45 | 0.0 | 0.0 | 0.03 | 0.04 | 0.00 | 98 | 969.4 |
| 20260905041640 | 71 | 45 | 0.0 | 0.0 | 0.03 | 0.04 | 0.00 | 98 | 969.4 |
| 20260905041139 | 71 | 45 | 0.0 | 0.0 | 0.03 | 0.04 | 0.00 | 98 | 969.4 |
| 20260905040640 | 71 | 45 | 0.0 | 0.0 | 0.03 | 0.04 | 0.00 | 97 | 969.4 |
| 20260905040140 | 71 | 45 | 0.0 | 0.0 | 0.04 | 0.04 | 0.00 | 97 | 969.4 |
| 20260905035639 | 71 | 45 | 0.0 | 0.0 | 0.04 | 0.04 | 0.04 | 97 | 969.3 |
| 20260905035136 | 71 | 45 | 0.0 | 0.0 | 0.04 | 0.04 | 0.04 | 96 | 969.3 |
| 20260905034637 | 71 | 45 | 0.0 | 2.0 | 0.04 | 0.04 | 0.04 | 96 | 969.3 |
| 20260905034132 | 72 | 45 | 0.0 | 4.0 | 0.03 | 0.03 | 0.03 | 96 | 969.3 |
| 20260905034116 | 72 | 316 | 1.0 | 4.0 | 0.03 | 0.03 | 0.03 | 95 | 969.2 |
| 20260905033130 | 72 | 34 | 1.0 | 5.0 | 0.02 | 0.02 | 0.03 | 95 | 969.2 |
| 20260905032631 | 72 | 24 | 1.0 | 5.0 | 0.01 | 0.01 | 0.01 | 95 | 969.2 |
| 20260905032350 | 72 | 23 | 0.0 | 3.0 | 0.01 | 0.01 | 0.01 | 95 | 969.2 |
| 20260905031629 | 73 | 23 | 0.0 | 4.0 | 0.01 | 0.02 | 0.01 | 95 | 969.2 |
| 20260905031129 | 73 | 346 | 0.0 | 4.0 | 0.01 | 0.02 | 0.01 | 94 | 969.1 |
| 20260905030628 | 73 | 32 | 0.0 | 3.0 | 0.01 | 0.02 | 0.01 | 94 | 969.1 |
| 20260905030128 | 73 | 26 | 0.0 | 3.0 | 0.00 | 0.02 | 0.00 | 93 | 969.0 |
| 20260905025627 | 74 | 38 | 0.0 | 2.0 | 0.00 | 0.02 | 0.00 | 92 | 969.0 |
| 20260905025344 | 74 | 53 | 0.0 | 3.0 | 0.00 | 0.02 | 0.00 | 92 | 969.0 |
| 20260905024627 | 74 | 17 | 0.0 | 3.0 | 0.00 | 0.03 | 0.00 | 91 | 969.0 |
| 20260905024125 | 74 | 48 | 0.0 | 1.0 | 0.00 | 0.03 | 0.00 | 91 | 968.9 |
| 20260905023627 | 74 | 65 | 0.0 | 1.0 | 0.00 | 0.03 | 0.00 | 91 | 968.9 |